[[{"header":{"parameterUnit":"m.s-1","parameterCategory":1,"la1":30.2992,"la2":30.254,"lo1":-89.0895,"lo2":-89.0443,"dy":0.0025,"dx":0.0025,"nx":19,"ny":19,"refTime":"2026-03-31T09:00:00:Z","depth":0,"parameterNumber":2,"parameterNumberName":"U-component_of_WINDS"},"data":[0,0,0,-5.4993,-5.4996,-5.5103,-5.5103,-5.5254,-5.5255,0,0,0,0,0,0,0,0,0,0,0,-5.4972,-5.4973,-5.4993,-5.4996,-5.5103,-5.5103,-5.5253,-5.5255,0,0,0,0,0,0,0,0,0,0,0,-5.4971,-5.4973,-5.4975,-5.4996,-5.5103,-5.5103,-5.5253,-5.5167,0,0,0,0,0,0,0,0,0,0,-5.506,-5.5052,-5.4973,-5.4975,-5.4997,-5.5103,-5.5103,-5.5163,-5.5172,-5.5212,0,-5.5252,0,-5.5256,-5.5266,-5.5267,0,0,0,-5.4987,-5.5044,-5.5063,-5.4975,-5.4998,-5.5103,-5.5052,-5.5168,-5.5179,-5.5225,-5.5254,-5.5259,-5.5259,-5.5268,-5.5268,-5.5531,-5.5532,0,0,-5.4981,-5.4996,-5.5056,-5.5071,-5.5058,-5.5049,-5.5056,-5.5174,-5.5206,-5.5255,-5.5262,-5.5261,-5.5269,-5.527,-5.5529,-5.5531,0,0,0,-5.497,-5.4993,-5.5009,-5.5065,-5.5084,-5.5052,-5.506,-5.52,-5.5205,-5.5264,-5.5263,-5.527,-5.5272,-5.5528,-5.553,-5.5624,0,0,0,-5.4966,-5.4986,-5.5007,-5.5017,-5.5082,-5.5144,-5.5084,-5.5197,-5.5209,-5.5262,-5.527,-5.5273,-5.5526,-5.5529,-5.5618,-5.5666,0,0,0,-5.4961,-5.4985,-5.5005,-5.5017,-5.5064,-5.5142,-5.5153,-5.5199,-5.521,-5.5267,-5.5274,-5.5524,-5.5528,-5.5612,-5.5656,-5.5738,0,0,0,-5.496,-5.5086,-5.5006,-5.5148,-5.5064,-5.5201,-5.5152,-5.5253,-5.5313,-5.5271,-5.5526,-5.553,-5.561,-5.565,-5.5732,-5.5809,-5.5843,0,0,-5.5127,-5.5107,-5.5189,-5.5121,-5.5276,-5.5183,-5.5352,-5.5392,-5.5383,-5.5482,-5.5488,-5.562,-5.5655,-5.5737,-5.6031,-5.6058,0,0,0,-5.5247,-5.5306,-5.5344,-5.5404,-5.544,-5.5474,-5.5488,-5.5503,-5.5586,-5.5438,-5.5673,-5.5693,-5.574,-5.5776,-5.5799,-5.5837,-5.5548,-5.5547,-5.5547,-5.5503,-5.5487,-5.5621,-5.5619,-5.5677,-5.5692,-5.5737,-5.5759,-5.5724,-5.5781,-5.5808,-5.5989,-5.6032,-5.6049,-5.609,-5.585,-5.585,-5.585,-5.5851,-5.5746,-5.5825,-5.5779,-5.5892,-5.5874,-5.5968,-5.5987,-5.596,-5.6043,-5.5967,-5.6007,-5.5922,-5.6079,-5.6114,-5.5857,-5.5856,-5.5855,-5.5855,-5.5854,-5.5909,-5.5945,-5.5964,-5.6049,-5.6117,-5.6109,-5.6193,-5.6173,-5.6155,-5.6196,-5.6222,-5.6221,-5.6215,-5.621,-5.6211,-5.6212,-5.6212,-5.6213,-5.6213,-5.6071,-5.6089,-5.6163,-5.6214,-5.625,-5.6295,-5.6312,-5.6346,-5.6379,-5.6358,-5.6358,-5.6316,-5.6099,-5.6043,-5.6223,-5.6221,-5.622,-5.6219,-5.6218,-5.6319,-5.626,-5.6374,-5.6411,-5.6468,-5.6536,-5.6512,-5.6584,-5.661,-5.6651,-5.6602,-5.6446,-5.6422,-5.6404,-5.6357,-5.6607,-5.6607,-5.6607,-5.6607,-5.6455,-5.6443,-5.6555,-5.6615,-5.6671,-5.6661,-5.6788,-5.6803,-5.6809,-5.6823,-5.6785,-5.6723,-5.6705,-5.6692,-5.6667,-5.6623,-5.6935,-5.6936,-5.6936,-5.6606,-5.6598,-5.6711,-5.6718,-5.6762,-5.68,-5.6918,-5.6987,-5.6982,-5.6949,-5.6834,-5.682,-5.6719,-5.6688,-5.6649,-5.6611,-5.6531,0,0]},{"header":{"parameterUnit":"m.s-1","parameterCategory":1,"la1":30.2992,"la2":30.254,"lo1":-89.0895,"lo2":-89.0443,"dy":0.0025,"dx":0.0025,"nx":19,"ny":19,"refTime":"2026-03-31T09:00:00:Z","depth":0,"parameterNumber":3,"parameterNumberName":"V-component_of_WINDS"},"data":[0,0,0,3.551,3.5512,3.5589,3.5589,3.5691,3.5692,0,0,0,0,0,0,0,0,0,0,0,3.549,3.5491,3.551,3.5512,3.5589,3.5589,3.5691,3.5692,0,0,0,0,0,0,0,0,0,0,0,3.5489,3.549,3.5491,3.5512,3.5589,3.5589,3.569,3.5631,0,0,0,0,0,0,0,0,0,0,3.5555,3.5539,3.549,3.5491,3.5512,3.5589,3.5589,3.5628,3.5634,3.5657,0,3.568,0,3.5688,3.5699,3.5699,0,0,0,3.5509,3.5534,3.5553,3.5492,3.5513,3.5589,3.5553,3.5631,3.5639,3.5666,3.5681,3.5685,3.5689,3.57,3.57,3.5847,3.5848,0,0,3.5505,3.5505,3.5548,3.5558,3.5548,3.5551,3.5556,3.5636,3.5651,3.5682,3.5687,3.5691,3.57,3.5701,3.5847,3.5847,0,0,0,3.5494,3.5502,3.5518,3.5554,3.5568,3.5553,3.5559,3.5648,3.5653,3.5688,3.5692,3.5701,3.5702,3.5846,3.5847,3.5889,0,0,0,3.5491,3.5496,3.5517,3.5517,3.5566,3.5609,3.5569,3.5648,3.5657,3.5692,3.5701,3.5703,3.5845,3.5846,3.5886,3.5908,0,0,0,3.5484,3.5495,3.5507,3.5517,3.5551,3.5608,3.5618,3.565,3.566,3.5699,3.5703,3.5844,3.5846,3.5883,3.5904,3.5949,0,0,0,3.5474,3.5541,3.5508,3.5584,3.555,3.5634,3.5617,3.5679,3.5718,3.5701,3.5845,3.5847,3.5882,3.5901,3.5946,3.5987,3.6004,0,0,3.5558,3.5551,3.5596,3.5569,3.5659,3.5622,3.5718,3.5752,3.5754,3.5816,3.5819,3.5887,3.5904,3.5948,3.6099,3.6112,0,0,0,3.5623,3.5655,3.5679,3.5718,3.5748,3.5775,3.5795,3.5809,3.5861,3.5787,3.5915,3.5925,3.5951,3.597,3.5982,3.6005,3.5856,3.5856,3.5855,3.574,3.5743,3.5818,3.583,3.5868,3.589,3.5921,3.5942,3.5931,3.5961,3.5979,3.6071,3.6094,3.6103,3.6126,3.6001,3.6001,3.6001,3.6001,3.5864,3.5911,3.5898,3.5967,3.5969,3.6025,3.605,3.6041,3.6093,3.6057,3.608,3.604,3.6118,3.6138,3.6005,3.6004,3.6004,3.6003,3.6003,3.5941,3.5964,3.5982,3.604,3.6085,3.6095,3.6147,3.6146,3.6145,3.6168,3.6188,3.6188,3.6187,3.6178,3.6179,3.6179,3.6179,3.6179,3.618,3.6015,3.6033,3.6079,3.6119,3.6145,3.618,3.6205,3.623,3.6258,3.6253,3.6253,3.624,3.6125,3.6097,3.6184,3.6184,3.6183,3.6182,3.6182,3.614,3.6113,3.6183,3.621,3.6258,3.6304,3.6303,3.6356,3.6376,3.6402,3.6385,3.6301,3.6292,3.6283,3.6259,3.6384,3.6384,3.6384,3.6384,3.6206,3.6203,3.6276,3.632,3.6362,3.637,3.6449,3.647,3.6486,3.65,3.6481,3.645,3.6441,3.6438,3.6425,3.6403,3.6562,3.6562,3.6562,3.6283,3.6285,3.6353,3.6372,3.641,3.6443,3.6519,3.6568,3.6581,3.657,3.651,3.6503,3.6452,3.6435,3.6422,3.6402,3.6362,0,0]}]]